weather.gov     
National Weather Service

Terminal Aerodrome Forecast
NWS Homepage
This page is being discontinued on March 12, 2014.
The same data is available at this site. Please update your bookmarks.
Thank you, and we apologize for the inconvenience.
Please send an email to SR-SRH.Webmaster@noaa.gov with any concerns.


Current Version
Previous Version:    01  02  03  04  05  06  07  08  09  10  11  12  13  14  
[Printable]
870
FTUS41 KGYX 180916 AAA
TAFMHT
TAF AMD
KMHT 180916Z 1809/1906 28004KT P6SM -SN BKN020 OVC060
     FM181200 29008KT P6SM -SHRA OVC050
     FM181400 30010G17KT P6SM BKN040
     FM190300 31007KT P6SM OVC100=




870
FTUS41 KGYX 180916 AAA
TAFMHT
TAF AMD
KMHT 180916Z 1809/1906 28004KT P6SM -SN BKN020 OVC060
     FM181200 29008KT P6SM -SHRA OVC050
     FM181400 30010G17KT P6SM BKN040
     FM190300 31007KT P6SM OVC100=


U.S. Dept. of Commerce
NOAA National Weather Service
1325 East West Highway
Silver Spring, MD 20910
E-mail: w-nws.webmaster@noaa.gov
Page last modified: May 16, 2007
NATIONAL WEATHER SERVICE: for Safety, for Work, for Fun - FOR LIFE